Location: Pianadetto
(44.4000°N, 10.1000°E)
Time: 00:02:39
(UTC+00:00)

Cosmos 1603 - Pass Details

Date: 26 May 2022
Orbit: 829 x 861 km, 71.0° (Epoch: 02 July)

Event Time Altitude Azimuth Distance (km) Brightness Sun altitude
Exits shadow 02:19:25 12° 192° (SSW) 2,314 5.5 -12.3°
Maximum altitude 02:24:37 67° 111° (ESE) 911 4.0 -11.7°
Drops below altitude 10° 02:30:14 10° 30° (NNE) 2,474 7.5 -11.0°
Sets 02:32:43 0° 28° (NNE) 3,418 8.5 -10.7°
